GFSMA_925_rhum_000.txt.gz
RH
63 60 57 54 55 59 61 64 62 56 44 41 46 47 42 43 46 37 38 31 27 27 29 35 46 69 78 83 90 91 91 90 88 86 83 86 86 83 80 78 77 72 70
58 52 46 44 44 46 52 57 54 49 41 40 42 47 42 40 42 42 34 41 29 29 28 30 35 46 84 91 84 84 87 90 89 88 87 86 87 86 85 80 75 71 72
49 51 44 44 44 46 56 61 63 55 47 39 40 42 43 44 38 40 36 34 40 34 32 33 36 44 50 64 76 82 86 89 89 92 91 91 88 88 89 88 82 76 72
58 54 46 45 44 49 49 51 52 48 46 38 34 35 36 36 37 40 38 35 33 32 40 32 33 38 43 49 62 71 74 79 84 89 92 87 87 90 90 87 92 83 82
50 52 46 44 48 48 46 48 49 47 46 37 34 34 36 35 34 34 33 39 39 34 32 42 25 29 39 44 45 50 68 81 83 84 85 89 85 81 86 91 99 94 92
46 48 47 50 54 54 49 45 48 48 43 41 32 28 32 36 36 33 34 34 32 42 40 41 44 43 38 31 37 42 59 67 71 86 81 84 92 90 87 83 88 98 99
46 47 45 46 48 48 49 55 53 51 54 46 45 36 35 36 42 36 33 32 31 39 41 46 37 34 35 34 32 27 42 67 68 66 79 83 83 93 97 98 90 91 85
38 38 41 43 42 44 46 49 54 55 53 51 47 41 37 31 33 39 36 34 34 35 41 47 39 38 36 33 37 35 22 36 47 61 62 75 69 62 57 80 98 99 94
40 40 41 45 48 46 42 43 46 48 48 48 50 48 43 39 31 28 39 37 37 43 40 41 37 36 36 39 38 41 46 41 43 51 52 71 70 69 59 57 57 80 93
38 41 42 46 47 45 45 43 39 44 46 46 44 47 52 48 47 42 35 42 41 46 45 40 37 41 40 36 33 32 35 43 48 45 45 44 64 69 73 75 86 87 98
36 41 48 51 52 49 48 57 58 59 59 56 51 50 52 55 51 50 44 39 40 41 37 42 46 44 45 42 36 44 43 50 61 55 44 41 46 78 80 79 85 87 77
36 41 52 55 59 59 58 59 67 71 70 72 70 70 65 69 57 48 46 40 39 37 40 46 46 47 47 44 41 36 49 55 52 61 58 53 65 90 82 74 74 85 90
40 45 59 57 54 60 61 63 68 71 80 85 90 96 99 99 99 100 88 66 65 47 47 45 45 46 46 46 42 48 47 46 45 43 42 43 51 50 57 78 88 87 89
51 61 62 60 61 63 65 70 74 79 79 83 85 96 97 99 99 99 100 98 98 90 65 57 45 45 45 44 43 44 42 46 46 45 47 51 59 54 60 68 67 57 48
56 62 67 61 55 60 62 68 79 86 84 85 78 77 80 91 97 92 91 81 83 80 58 43 43 41 41 43 42 42 45 48 56 47 43 47 52 50 39 40 40 43 43
66 60 57 57 59 65 77 80 83 84 81 75 72 63 50 48 53 58 56 54 50 45 42 31 28 28 31 33 37 37 38 43 44 49 42 42 46 47 43 40 38 38 41
61 57 59 64 70 90 99 98 86 72 56 54 52 48 45 44 44 40 38 39 38 36 35 32 30 30 32 36 39 40 38 38 40 45 46 50 40 35 37 36 42 42 40
72 72 83 96 95 96 83 74 68 56 49 45 46 46 43 36 38 40 40 42 41 40 39 38 35 34 34 35 38 40 41 38 37 37 41 48 60 51 36 31 30 37 44
94 98 93 90 91 85 77 62 51 48 49 50 48 45 43 45 47 44 45 45 43 41 40 40 38 36 36 36 37 39 41 42 43 42 44 51 56 56 55 52 47 37 37
72 67 60 59 59 55 51 46 44 47 48 46 49 52 51 52 51 49 47 45 43 42 39 38 36 35 36 35 37 38 38 40 41 40 41 42 44 52 60 59 54 47 42
43 42 41 42 44 44 41 58 48 48 50 51 53 54 53 56 68 73 64 52 47 45 43 40 39 39 39 40 40 40 41 42 43 43 45 45 45 44 44 46 46 52 47
39 41 42 43 46 46 61 70 78 62 55 51 50 50 51 54 55 58 67 76 79 71 58 53 51 53 50 48 50 51 53 54 54 47 50 53 55 54 48 46 46 55 59
42 45 46 51 54 53 57 62 82 66 59 56 56 55 54 50 52 56 60 72 80 82 85 80 76 70 67 66 66 65 63 61 56 51 53 60 63 79 75 62 55 54 58
43 45 50 54 55 53 60 81 85 70 64 62 62 60 56 53 54 70 73 74 76 75 75 81 78 68 65 64 66 64 63 69 72 63 60 70 66 72 69 75 69 69 74
47 50 55 57 58 60 71 83 84 74 68 68 64 60 65 80 83 88 88 91 82 75 75 85 73 65 72 80 77 77 91 75 81 65 59 59 68 69 66 71 77 77 96
49 58 69 72 72 72 80 84 81 76 81 83 85 83 89 86 81 93 97 95 86 71 72 81 79 95 94 78 78 84 81 80 73 70 61 61 60 61 72 68 68 74 80

GFSMA_925_rhum_003.txt.gz
RH
53 50 46 43 40 39 42 45 46 46 44 40 38 41 40 38 41 38 31 38 24 26 28 32 41 54 61 67 79 82 82 86 87 94 88 83 82 86 86 83 80 80 78
51 48 43 40 38 38 39 43 45 48 43 36 37 39 42 35 34 38 33 40 34 25 30 27 27 42 52 66 71 76 85 85 85 85 95 90 88 85 86 88 86 81 78
46 48 44 43 40 40 42 42 44 45 46 42 36 37 40 42 40 38 38 30 39 28 28 34 35 33 37 46 52 68 75 83 88 85 83 90 91 87 86 86 88 86 82
49 49 44 41 40 44 43 40 40 41 41 40 39 36 32 35 36 37 38 36 31 38 34 24 30 29 31 37 40 42 56 70 75 86 91 88 96 94 90 86 88 90 86
40 44 43 42 44 45 45 45 42 41 40 41 39 36 33 34 34 34 35 36 37 31 35 42 26 25 23 27 34 38 40 44 70 82 82 82 88 89 86 88 88 86 87
45 47 46 46 46 46 44 43 46 46 47 46 43 38 37 32 32 36 34 34 34 38 36 41 35 32 30 28 24 26 38 57 58 64 84 83 83 87 85 83 84 85 91
41 41 40 38 41 40 41 44 45 46 48 46 48 46 44 41 36 34 36 35 33 34 38 41 41 37 41 34 29 26 27 48 65 66 68 80 86 78 84 91 89 82 83
41 40 38 37 36 37 40 41 44 47 46 45 48 47 51 45 39 38 37 38 35 33 33 40 44 42 35 36 35 36 31 27 29 47 63 63 79 75 67 79 94 99 92
39 36 35 37 40 40 38 39 39 41 43 42 43 46 53 51 42 35 36 40 37 37 34 35 44 42 39 37 38 39 32 28 24 27 52 58 64 73 67 59 59 66 89
32 32 34 40 45 43 42 41 35 47 46 47 45 40 41 45 58 60 46 41 39 38 40 40 40 41 38 39 42 40 47 42 29 31 37 62 50 69 75 76 68 64 56
34 34 36 40 45 43 45 49 50 54 54 52 50 53 58 58 52 65 72 56 44 48 51 59 45 39 42 43 40 41 43 33 30 37 41 44 53 44 70 76 85 91 66
36 35 37 44 46 48 50 51 52 59 74 71 71 70 78 79 79 76 73 61 57 60 59 58 54 49 48 46 45 46 50 45 53 56 50 47 47 48 79 88 84 78 83
38 40 46 50 49 48 49 55 70 81 82 89 94 84 82 88 93 94 99 96 92 80 87 86 78 67 50 45 46 43 40 36 52 47 48 49 49 49 57 68 88 85 88
44 44 49 53 51 52 56 61 68 75 77 82 80 82 82 87 96 100 100 98 92 90 89 84 68 69 69 50 45 46 56 45 44 46 45 47 46 48 49 54 62 70 78
45 43 47 49 53 52 62 69 72 82 81 85 84 81 78 83 91 79 73 82 89 92 63 54 59 60 63 57 43 45 45 47 44 49 47 46 51 55 41 48 53 59 56
49 54 56 63 65 78 84 84 81 77 84 76 72 63 60 57 53 54 60 69 73 74 69 47 39 39 35 34 36 41 44 43 55 53 46 46 38 42 44 35 33 33 34
63 75 85 85 90 93 95 93 79 74 78 81 67 62 55 52 48 42 40 40 38 38 41 34 31 29 30 31 32 33 37 40 40 40 40 39 39 36 36 35 38 39 40
75 83 88 89 94 99 96 90 82 66 59 57 58 56 56 51 47 42 38 36 36 34 35 37 33 33 33 33 34 35 36 36 36 35 35 44 44 40 38 38 37 34 32
60 60 60 64 58 57 52 48 46 52 53 51 49 49 46 44 42 41 41 40 39 37 36 35 35 33 33 32 32 33 35 36 37 36 38 43 51 55 57 57 52 46 42
42 38 36 37 37 37 38 38 40 43 40 37 39 42 44 45 46 46 47 45 42 41 38 38 36 34 33 32 32 35 36 35 37 35 34 35 40 50 49 50 51 50 47
34 33 34 35 36 37 43 57 57 54 52 47 44 42 42 45 49 53 54 54 53 52 46 41 40 38 36 34 34 34 37 38 40 40 42 43 42 42 42 40 41 54 57
32 35 36 37 39 40 51 55 61 63 56 51 48 44 44 44 50 51 58 61 61 58 56 54 50 47 45 45 44 45 48 49 52 48 48 50 49 51 50 52 52 50 45
34 37 38 39 43 46 55 58 68 70 65 58 54 51 51 47 47 49 49 50 60 71 78 74 70 67 61 58 59 60 62 60 60 55 54 58 58 68 65 59 59 66 69
36 38 40 45 50 52 62 79 86 70 63 60 57 56 58 56 52 58 72 69 65 68 72 80 79 70 67 66 65 66 66 70 70 69 66 70 65 69 66 67 68 65 66
38 39 45 52 63 67 69 92 81 70 72 71 65 65 74 71 62 74 80 81 78 74 71 78 78 69 65 65 74 80 90 93 82 63 57 63 69 71 68 68 69 61 60
40 52 62 67 73 74 87 78 84 76 82 81 81 71 75 77 83 83 90 93 92 80 80 87 84 89 96 97 83 81 74 77 76 74 57 62 64 62 73 72 69 68 73

GFSMA_925_rhum_006.txt.gz
RH
52 49 46 42 39 39 39 40 42 44 46 42 38 37 41 42 38 37 38 38 33 31 22 36 57 47 56 61 66 73 80 80 82 78 56 81 86 80 76 76 80 80 79
50 47 45 44 42 40 40 41 44 47 50 50 44 38 38 40 39 38 38 40 37 34 24 23 40 53 48 53 60 67 74 82 86 88 88 85 82 83 81 83 81 82 80
48 49 49 46 44 42 43 43 44 43 42 44 45 43 38 36 40 39 37 38 39 36 32 21 26 48 51 36 42 59 70 74 80 83 90 88 87 78 82 84 88 86 82
45 45 46 45 44 45 45 47 46 46 46 43 43 43 42 38 36 40 40 39 39 39 35 31 22 26 26 28 28 30 42 60 72 81 87 86 85 86 87 90 87 86 86
40 44 46 46 45 46 49 49 49 49 50 49 48 45 40 42 38 35 37 38 38 37 43 37 31 24 24 27 26 26 28 32 43 70 81 85 87 86 91 92 90 88 88
45 42 43 43 42 45 45 45 47 45 45 47 50 50 48 46 45 42 37 35 37 37 35 43 40 32 24 25 27 28 37 34 34 42 58 85 84 81 86 88 87 75 92
42 42 41 42 39 40 41 40 41 42 43 45 48 51 47 46 47 51 46 40 36 37 37 35 43 41 31 24 25 27 41 50 54 59 64 68 85 87 81 86 88 84 92
42 41 37 36 41 44 44 45 47 47 43 42 51 52 58 48 44 43 42 46 42 39 37 40 40 46 41 43 38 32 31 46 41 47 33 43 65 84 80 75 80 91 89
49 37 34 36 41 45 46 45 46 45 59 53 49 55 63 64 54 47 46 45 47 49 53 56 55 44 44 47 38 33 34 33 26 21 23 27 41 55 77 69 64 67 81
38 36 36 38 41 48 46 50 54 54 57 60 63 68 70 75 86 78 57 57 55 58 58 58 52 69 49 44 40 40 36 36 32 31 26 34 53 42 78 78 63 57 63
40 38 39 40 46 47 49 52 52 56 67 73 72 70 70 71 74 83 79 78 71 59 75 88 83 80 66 53 47 44 43 42 43 38 35 63 61 49 46 79 79 75 59
42 43 44 46 51 52 51 58 67 68 72 73 71 78 78 79 77 78 80 80 82 79 71 77 96 89 87 84 62 54 47 40 40 34 44 65 64 68 45 66 73 80 85
49 48 47 47 51 54 58 58 62 78 82 83 84 79 80 83 81 86 86 86 84 83 82 75 71 88 94 92 82 78 68 48 46 43 40 60 67 58 50 58 83 84 80
49 47 58 58 60 61 61 63 68 76 81 82 80 76 79 79 80 87 92 96 94 91 81 82 76 73 86 94 87 81 65 44 40 40 49 48 51 55 56 59 65 79 84
61 60 64 71 71 75 81 84 86 82 83 89 79 81 83 81 77 80 82 85 88 94 79 57 78 64 70 86 85 86 66 60 47 43 42 46 47 50 50 47 56 66 74
60 66 74 80 83 82 85 88 92 88 80 78 84 86 97 85 86 69 65 64 68 79 86 69 56 45 44 51 71 71 67 50 52 48 48 51 48 46 45 47 38 40 40
64 63 64 71 75 78 84 69 65 73 78 66 65 67 73 79 82 80 71 60 50 47 64 47 42 38 35 37 41 44 59 49 44 44 41 40 39 39 39 38 37 40 39
60 59 56 56 56 56 55 57 64 65 63 68 62 58 58 55 55 50 49 50 47 45 45 49 44 40 37 35 34 34 36 41 39 42 43 42 39 39 39 40 35 31 31
47 44 39 37 36 36 37 37 39 46 52 50 49 53 51 48 49 47 48 49 50 52 54 51 48 41 39 36 34 34 34 36 37 38 37 38 40 43 45 42 42 42 43
37 35 34 36 37 38 39 47 51 54 56 54 54 53 55 52 50 53 62 58 58 56 56 56 54 48 43 40 37 35 36 33 33 34 35 36 39 41 42 44 43 44 45
33 33 35 37 38 40 49 50 54 59 61 62 60 57 55 53 52 50 52 60 57 56 58 61 61 57 52 47 48 51 52 50 47 47 47 47 48 51 53 44 46 42 40
33 35 38 40 42 47 53 61 68 72 74 72 69 64 61 58 54 54 54 58 56 52 59 60 60 62 61 60 63 62 64 65 76 57 55 56 55 53 53 56 65 70 70
35 38 40 43 47 53 62 77 83 79 75 69 68 68 67 64 65 64 68 74 72 80 80 77 77 79 73 67 67 69 68 69 70 69 65 64 58 60 59 64 66 71 69
37 39 45 48 54 62 64 65 82 81 74 72 74 71 71 72 75 75 83 86 83 74 73 80 80 87 86 80 74 76 80 82 80 76 69 79 71 70 64 68 64 58 57
38 48 55 65 71 72 73 86 93 86 83 78 79 84 84 78 73 75 79 83 88 83 75 69 73 83 88 84 82 91 88 87 92 86 77 66 66 65 64 65 58 58 52
46 55 69 76 75 69 82 89 96 93 90 88 92 85 80 84 98 100 100 98 98 96 93 90 84 80 74 72 73 86 98 91 79 79 69 69 68 72 83 69 63 57 56

GFSMA_925_rhum_009.txt.gz
RH
51 49 47 44 42 42 41 41 41 41 44 46 46 45 39 38 36 34 34 36 37 38 35 32 20 26 38 56 62 67 78 84 80 82 72 75 76 76 74 80 81 78 71
50 49 47 46 44 45 46 45 43 44 46 47 48 49 46 42 38 36 35 35 36 38 38 35 28 22 33 44 48 52 62 72 82 81 76 77 79 76 69 74 79 81 78
46 47 49 49 45 45 46 46 45 48 48 46 47 47 46 45 42 39 36 35 34 35 37 35 33 28 21 37 56 39 42 64 73 83 83 79 88 85 77 76 76 78 83
49 47 43 42 46 46 46 47 48 50 53 54 52 50 49 49 47 45 40 39 38 36 36 35 35 32 29 21 30 59 40 39 58 72 80 85 81 88 91 86 79 78 81
46 42 38 38 38 41 41 46 48 44 42 40 41 43 47 48 48 47 48 44 41 40 39 36 36 36 33 23 23 51 62 62 46 50 69 78 80 84 89 89 85 86 89
41 41 42 44 40 39 40 41 42 42 46 45 48 44 48 45 49 45 45 45 49 44 39 40 37 38 37 31 27 41 61 59 63 68 66 67 75 76 81 85 92 96 88
38 40 42 41 41 44 40 40 41 39 44 49 46 56 50 44 45 44 41 45 49 54 51 46 41 40 36 37 33 23 46 57 57 60 65 70 69 80 77 80 86 86 91
47 41 38 38 41 43 41 44 39 51 54 53 58 60 74 56 51 53 53 50 57 59 63 66 57 50 50 44 39 34 25 44 56 59 62 67 55 81 80 80 82 87 92
41 37 38 39 39 46 47 45 45 52 57 59 66 70 93 95 79 61 54 60 51 59 59 56 85 82 66 57 55 41 32 32 39 59 64 69 64 54 73 72 70 68 71
40 38 40 42 42 46 49 51 54 64 62 70 71 71 70 72 84 78 59 55 54 46 48 62 62 80 92 90 76 71 55 42 38 42 48 65 68 73 77 88 71 61 56
40 42 44 43 43 48 51 55 60 65 67 69 75 78 74 70 69 77 80 75 76 77 71 72 66 65 85 97 95 88 73 64 52 39 34 37 66 70 72 87 86 70 62
46 47 47 54 59 61 66 65 64 73 74 75 76 76 79 84 85 80 76 76 76 76 72 62 73 74 77 86 93 95 86 77 70 48 42 36 40 71 73 74 78 80 81
51 60 60 61 67 70 68 70 73 80 89 89 93 91 83 74 77 80 79 80 85 80 79 66 62 74 73 81 85 87 91 98 84 68 47 41 37 54 68 75 79 73 73
62 60 69 72 72 80 83 84 84 86 87 96 89 82 81 85 90 86 84 87 88 76 78 70 61 65 55 64 76 95 91 96 98 81 61 50 51 53 56 60 66 81 92
59 57 63 62 56 61 61 68 66 67 71 80 78 74 85 95 95 100 100 100 99 91 79 71 68 49 44 52 62 84 97 95 97 87 58 48 49 48 48 48 52 63 78
49 48 54 58 63 68 69 68 64 60 63 69 63 66 70 74 88 87 96 99 100 94 95 68 63 51 47 42 51 57 79 99 99 99 77 48 44 46 47 46 47 41 44
49 58 55 51 44 43 40 40 43 46 57 63 61 55 53 52 62 66 68 65 67 81 95 72 53 48 44 41 38 40 50 72 83 85 65 47 43 43 40 40 40 40 41
47 46 39 35 35 36 37 40 46 53 55 55 53 49 48 47 48 48 55 56 53 52 56 66 57 52 48 44 40 36 34 44 50 74 63 46 42 41 40 40 39 39 36
40 35 34 34 36 37 40 46 48 49 51 54 56 58 57 53 50 57 58 60 60 64 59 60 60 53 50 46 44 40 39 37 34 39 40 43 45 42 39 42 42 42 40
35 34 33 34 37 39 45 46 48 55 60 65 66 65 64 63 60 62 68 63 59 67 67 59 59 59 56 51 50 61 59 58 56 46 37 36 41 44 46 44 43 42 40
36 34 33 37 40 47 50 54 61 71 69 66 63 65 63 66 68 67 72 68 68 72 68 61 62 62 60 58 63 67 68 64 58 58 55 52 52 49 49 53 52 52 51
40 36 37 41 49 51 58 66 67 65 70 72 69 59 63 73 70 76 74 83 86 88 80 67 66 68 65 67 64 66 68 69 85 61 70 63 58 56 56 53 52 56 61
45 37 47 49 53 62 68 68 72 81 87 79 73 69 72 74 79 81 77 80 76 84 88 90 97 89 83 69 73 76 76 77 76 70 71 74 65 62 58 60 66 67 68
42 51 51 56 66 61 60 80 87 91 88 81 80 80 87 91 91 86 82 83 82 79 70 64 76 74 75 75 81 82 85 98 94 88 76 84 64 62 58 58 61 67 69
50 51 61 65 59 65 78 90 94 96 92 89 88 90 86 86 89 99 100 96 98 95 85 87 83 89 91 94 95 99 99 96 90 85 71 77 77 76 71 65 58 58 57
61 66 66 63 70 75 78 82 99 96 91 96 96 92 92 96 97 96 96 95 98 81 83 82 79 76 69 66 60 64 73 97 96 86 73 73 69 67 75 66 60 56 57